Regional Weather Roundup
Issued by NWS Wilmington, NC

Home | Current Version | Previous Version | Text Only | Print | Product List | Glossary On
Versions: 1 2 3 4 5 6 7 8 9 10 11 12 13 14 15 16 17 18 19 20 21 22 23 24 25 26 27
000
ASUS42 KILM 250813
RWRILM
RWRILM
REGIONAL HOURLY WEATHER ROUNDUP
NATIONAL WEATHER SERVICE WILMINGTON NC
300 AM EST SUN FEB 25 2018

NOTE: "FAIR" INDICATES FEW OR NO CLOUDS BELOW 12,000 FEET WITH NO
SIGNIFICANT WEATHER AND/OR OBSTRUCTIONS TO VISIBILITY.

...............WFO WILMINGTON COUNTY WARNING AREA...............

......COASTAL NC AND SC COUNTIES......

CITY           SKY/WX    TMP DP  RH WIND       PRES   REMARKS
WILMINGTON     FAIR      65  63  93 SW7       30.13F
N MYRTLE BEACH FAIR      64  63  96 SW10      30.12F
MYRTLE BEACH   MOCLDY    67  64  90 S10       30.14F

......INLAND NC AND SC COUNTIES.......

CITY           SKY/WX    TMP DP  RH WIND       PRES   REMARKS
LUMBERTON      FAIR      64  62  93 S8        30.09F
ELIZABETHTOWN  NOT AVBL
WHITEVILLE     FAIR      63  62  97 S3        30.11F
FLORENCE       FAIR      65  62  90 S9        30.10F
DARLINGTON     MOCLDY    65  62  90 S13       30.09F
KINGSTREE      FAIR      63  63 100 S3        30.12F
HARTSVILLE     MOCLDY    63  61  94 S8        30.08F
BENNETTSVILLE  MOCLDY    68  63  83 S9        30.08F
CONWAY         FAIR      63  63 100 S5        30.12F
GEORGETOWN     FAIR      64  64 100 S5        30.14F
MARION         MOCLDY    63  61  94 S8        30.11F

....................REST OF NORTH CAROLINA......................

.........EASTERN NC.........

CITY           SKY/WX    TMP DP  RH WIND       PRES   REMARKS
CAPE HATTERAS  FAIR      65  64  97 SW8       30.12F
JACKSONVILLE   FAIR      62  62 100 S8        30.12
MOREHEAD CITY  FAIR      64  62  93 SW10      30.12F
KENANSVILLE    FAIR      64  63  94 SW7       30.11F
NEW BERN       FAIR      64  63  96 S7        30.12F
ELIZABETH CITY FAIR      64  63  96 S13       30.06F

.........CENTRAL NC.........

CITY           SKY/WX    TMP DP  RH WIND       PRES   REMARKS
RALEIGH DURHAM FAIR      64  58  80 SW12      30.05F
ROCKY MOUNT    FAIR      64  60  87 S10       30.07F
ROANOKE RAPIDS NOT AVBL
FAYETTEVILLE   FAIR      65  62  90 S9        30.08F
HOFFMAN        FAIR      64  60  87 SW9       30.07F

.........WESTERN NC.........

CITY           SKY/WX    TMP DP  RH WIND       PRES   REMARKS
CHARLOTTE      FAIR      65  60  84 S17       30.03F
GREENSBORO     MOCLDY    63  59  87 S13       30.01F
HICKORY        NOT AVBL
BOONE          NOT AVBL
ASHEVILLE      NOT AVBL

.....................REST OF SOUTH CAROLINA.....................

.........EASTERN SC.........

CITY           SKY/WX    TMP DP  RH WIND       PRES   REMARKS
CHARLESTON     FAIR      68  66  93 SW10      30.13F
BEAUFORT MCAS  FAIR      69  66  90 S8        30.13F
HILTON HEAD    FAIR      66  64  94 S9G15     30.14F

.........CENTRAL SC.........

CITY           SKY/WX    TMP DP  RH WIND       PRES   REMARKS
COLUMBIA       FAIR      66  62  87 S9        30.06F
ORANGEBURG     FAIR      64  62  93 S7        30.10F
SUMTER SHAW    FAIR      65  62  90 S10       30.07F

.........WESTERN SC.........

CITY           SKY/WX    TMP DP  RH WIND       PRES   REMARKS
GREENVILLE     NOT AVBL
ROCK HILL      FAIR      64  58  80 S5        30.05F
ANDERSON       FAIR      64  57  78 S5        30.04F
CLEMSON        NOT AVBL
GREENWOOD      MOCLDY    64  59  83 S10       30.07F


...................COASTAL AND OFFSHORE REPORTS..................

................LOCAL PIERS AND NC RESERVE................


STATION/POSITION TIME  SKY/WX   TEMP    WIND        PRES    VSBY
                                AIR SEA DIR/SP/G
                 (UTC)          (F)     (DEG/KT/KT) (MB)    (MI)
JOHNY MRCER PIER 0748            60 55  210/ 10/ 10 1020.4F
NC RESRV MASNBRO NOT AVBL
OCEAN CREST PIER NOT AVBL
SPRINGMAID  PIER 0748                               1023.4F


................COASTAL AND OFFSHORE BUOYS................


STATION/POSITION TIME  SKY/WX   TEMP    WIND        PRES    VSBY
                                AIR SEA DIR/SP/G
                 (UTC)          (F)     (DEG/KT/KT) (MB)    (MI)
DIMNDSHOAL 41025 0750            72 73  240/ 16/ 19 1020.2F
WVE H/P(F/S)=  4/ 9 SWL H/P/D(F/S/D)=  3/130/ 9

CAPE LOOKOUT     0800                   220/  9/ 13 1020.5F
ONSLOW BAY 41036 NOT AVBL
ONSLOW BAY 41064 0708            71 70  210/ 12/ 16 1020.6F
ONSLOW BAY 41159 0800               70                N/A
WVE H/P(F/S)=  5/10 SWL H/P/D(F/S/D)=  2/130/11

MASNBO INL 41110 0759               58                N/A
WVE H/P(F/S)=  3/10 SWL H/P/D(F/S/D)=  2/130/11

WILM HARBR 41108 0800               62                N/A
WVE H/P(F/S)=  4/10 SWL H/P/D(F/S/D)=  2/140/11

27SE WRITB 41037 0708            70 69  210/ 14/ 21 1020.7F
FRYING PAN 41013 0750            72 71  210/ 17/ 21 1020.4F
WVE H/P(F/S)=  5/ 9 SWL H/P/D(F/S/D)=  3/140/ 9

SUNST NRSH 41024 0708            63 62  220/  8/ 12 1020.2F
CAPRS NRSH 41029 0708            62 64  210/  8/ 12 1020.4S
EDISTO     41004 0750            72 71  200/ 12/ 14 1020.5F
WVE H/P(F/S)=  4/ 9 SWL H/P/D(F/S/D)=  3/130/ 9



..........OFFSHORE BUOYS BEYOND 100 NM OFFSHORE...........
.....IN A TRIANGLE---HAT TO BERMUDA TO BAHAMAS TO HAT.....


STATION/POSITION TIME  SKY/WX   TEMP    WIND        PRES    VSBY
                                AIR SEA DIR/SP/G
                 (UTC)          (F)     (DEG/KT/KT) (MB)    (MI)
150E HAT   41001 NOT AVBL
W BERMUDA  41048 0750            69 69  250/  8/ 10 1024.9F
WVE H/P(F/S)=  4/ 8 SWL H/P/D(F/S/D)=  3/120/ 8

ATLANTIC S 41049 0750            71 75   30/ 14/ 17 1023.3F
WVE H/P(F/S)=  5/11 SWL H/P/D(F/S/D)=  3/ 60/11

E BAHAMAS  41046 0750               77   70/ 16/ 19 1021.6F
WVE H/P(F/S)=  7/ 9 SWL H/P/D(F/S/D)=  5/110/ 9

NE BAHAMAS 41047 0750                   110/  6/  8 1024.4F
WVE H/P(F/S)=  6/ 9 SWL H/P/D(F/S/D)=  7/120/ 9

120E CANVRL41010 NOT AVBL

END




USA.gov is the U.S. government's official web portal to all federal, state and local government web resources and services.